Theta_e
333 331 330 329 329 329 328 329 329 328 328 326 327 325 324 324 324 325 326 318 322 325 328 329 331 330 329 331 329 326 325 324 323 322 321 322 321 321 320 320 320 319 318
333 331 330 329 328 328 328 327 327 327 327 327 325 325 324 324 324 325 325 326 321 324 326 329 330 331 331 330 332 330 328 326 324 323 322 322 322 322 321 321 321 321 320
333 331 331 331 330 330 329 328 327 326 325 325 325 325 325 325 324 323 324 325 326 320 323 326 328 330 332 332 330 332 332 329 326 324 323 323 323 323 322 322 321 321 320
335 333 332 331 332 331 329 328 326 325 324 324 324 325 325 326 326 325 324 324 325 325 323 324 326 328 330 331 332 330 331 332 329 327 327 326 325 324 323 323 322 322 321
334 334 333 333 332 330 329 329 327 326 324 324 324 325 325 325 325 324 323 323 324 325 325 324 322 323 327 329 331 332 331 331 333 331 329 328 327 325 325 324 324 323 322
335 333 333 332 331 330 329 328 328 328 326 325 322 323 324 325 326 325 324 324 323 323 324 325 325 320 320 327 329 331 332 331 332 332 331 330 329 328 328 328 325 325 325
335 333 331 331 331 329 329 330 327 325 325 326 321 321 323 325 325 325 324 324 324 324 324 323 325 325 324 323 326 329 331 332 333 332 332 331 330 330 330 330 329 328 328
332 331 331 330 330 328 327 327 325 323 323 325 318 316 312 318 322 324 325 324 323 324 324 324 323 324 324 324 322 326 329 331 333 333 332 331 331 331 331 331 330 330 330
331 331 330 329 329 328 326 325 325 323 319 322 322 317 309 307 313 319 320 321 323 322 323 323 323 323 322 322 323 323 324 327 331 332 332 332 332 332 332 332 332 331 331
330 330 330 329 328 328 327 326 326 325 323 319 320 320 320 318 311 310 314 315 318 319 321 321 322 322 323 322 319 316 316 321 323 326 328 330 332 332 333 332 332 331 331
329 327 327 329 328 328 327 326 325 324 324 321 319 317 315 316 317 313 310 314 318 319 319 320 321 322 322 321 321 318 314 317 317 318 321 324 327 330 332 332 332 332 332
311 309 313 315 322 325 325 325 325 324 323 321 321 320 317 313 312 312 311 312 313 316 320 321 320 320 320 321 316 310 312 315 317 317 316 318 321 324 328 330 331 332 332
303 303 306 308 311 313 314 318 322 324 324 322 321 320 320 319 319 317 314 313 312 315 316 320 321 322 322 321 320 308 308 312 315 315 315 315 317 318 321 325 327 328 329
298 300 300 302 303 304 305 307 311 315 315 319 321 321 320 320 320 318 315 313 310 312 314 315 319 320 321 320 316 307 316 309 312 314 315 314 315 316 317 320 322 324 325
294 296 297 298 299 299 300 300 303 304 306 309 310 311 312 316 319 319 319 317 312 307 308 314 315 319 320 320 317 318 318 311 310 312 312 312 313 314 315 317 319 321 323
291 292 293 295 295 296 296 297 299 301 299 299 299 300 300 302 305 310 313 315 315 312 308 314 315 318 319 317 315 315 317 306 306 309 310 310 311 312 313 314 316 318 320
288 289 290 291 292 292 293 294 293 294 294 295 296 296 296 297 297 299 302 304 306 309 307 311 315 317 317 317 318 315 314 316 316 306 308 309 309 309 310 311 313 314 316
287 287 288 288 288 288 290 289 289 289 290 290 291 292 292 293 294 296 296 294 295 297 297 296 302 307 313 316 317 317 316 313 314 311 309 309 309 308 308 309 310 311 311
284 285 285 285 286 287 286 286 287 287 288 288 289 289 290 291 291 291 291 292 293 294 293 292 293 299 303 308 311 314 314 315 313 305 308 306 306 306 307 307 307 307 307
282 283 283 283 284 284 284 284 284 285 286 287 289 289 289 289 288 288 289 289 289 289 290 289 290 291 294 298 299 298 303 308 307 308 303 302 304 302 304 305 305 303 304
281 281 281 282 282 282 283 283 284 284 285 285 286 286 287 285 286 287 287 286 287 286 286 286 286 288 289 290 292 296 297 301 304 307 305 302 299 300 302 301 300 300 302
280 280 280 280 280 281 283 284 283 283 282 282 282 283 283 284 284 284 285 285 285 284 284 285 286 285 286 288 290 291 291 291 290 301 300 302 296 298 299 300 301 302 302
279 279 279 279 279 280 282 282 282 281 281 281 281 281 281 282 282 282 282 283 283 284 285 284 283 285 286 288 288 287 286 286 286 291 293 294 292 296 298 297 300 301 301
277 277 278 278 279 279 280 281 281 280 280 279 280 280 279 279 280 280 280 280 281 282 284 284 284 285 286 288 287 286 286 286 287 289 292 290 298 294 297 295 297 299 300
276 276 277 277 276 277 279 280 279 278 278 278 278 278 278 278 279 280 278 277 277 279 282 283 284 287 289 289 289 287 285 284 283 285 290 290 294 290 286 292 292 297 299
275 276 276 276 276 275 277 279 279 277 276 276 276 277 278 277 278 279 277 275 273 275 276 276 279 281 285 287 289 288 287 284 284 284 289 288 292 285 287 285 288 290 294
Wind_Speed
7 7 7 6 6 7 7 7 7 7 8 9 10 10 10 10 10 6 5 11 13 15 18 18 18 17 17 20 20 19 19 19 18 19 18 18 18 18 17 18 18 17 17
7 8 7 7 7 7 7 7 7 7 7 8 10 11 11 10 10 10 7 7 14 15 19 20 20 20 19 20 23 22 21 21 21 21 21 21 20 20 21 21 20 19 19
11 10 8 7 7 7 8 7 8 8 8 8 10 10 9 11 10 11 9 8 8 15 17 22 22 22 22 22 22 22 25 24 21 23 23 23 23 24 23 22 22 22 21
12 10 8 8 8 7 7 7 7 7 8 8 8 8 8 10 10 11 10 10 9 9 14 21 22 24 24 24 24 24 22 26 24 24 24 24 25 26 25 23 23 24 23
13 11 9 8 9 7 8 7 7 8 8 8 8 9 8 9 9 9 12 12 13 11 9 13 22 22 24 26 27 26 26 25 26 25 26 26 26 26 26 26 25 25 26
12 12 10 11 8 7 8 9 9 8 8 8 7 8 8 8 9 9 11 11 12 14 12 14 10 12 22 25 28 29 29 28 25 24 27 28 28 29 28 27 27 28 28
10 9 8 9 9 9 11 10 10 12 8 8 6 7 9 11 12 10 10 11 13 13 13 12 10 9 9 25 28 30 31 31 28 27 25 27 30 30 30 30 29 30 30
9 7 8 8 9 6 9 11 11 7 8 6 4 3 4 4 9 11 10 11 14 10 11 13 13 14 12 10 14 27 31 33 32 30 28 28 27 29 31 32 32 31 32
9 8 8 7 7 6 6 7 8 9 7 4 9 6 3 5 3 3 9 9 12 9 9 10 11 12 13 12 14 16 26 30 32 32 31 30 29 30 30 30 31 32 32
7 8 8 7 6 4 5 5 5 5 6 8 4 7 11 6 4 4 3 4 7 10 12 10 11 13 14 12 16 17 17 26 29 31 32 32 32 32 31 32 31 31 31
6 8 7 4 5 4 6 7 7 7 7 7 7 5 6 8 10 8 10 7 8 9 10 10 11 10 12 12 11 14 20 21 24 27 30 31 32 32 32 32 32 32 31
5 9 7 7 7 4 5 5 6 8 6 7 7 7 7 4 4 6 7 9 9 9 10 9 9 10 10 9 12 16 17 24 27 26 27 28 29 30 32 33 33 32 32
6 8 9 8 6 8 7 8 6 7 7 7 8 7 6 7 7 7 8 10 9 7 7 8 9 10 10 9 10 14 17 22 23 25 28 28 29 30 32 33 34 34 32
8 11 10 10 10 10 10 9 6 6 10 9 9 8 8 7 7 7 7 9 12 10 9 13 7 9 10 10 13 15 13 17 23 27 27 27 28 29 30 31 32 33 33
9 11 11 11 11 10 11 11 8 9 9 10 10 10 9 7 7 7 8 9 9 12 13 10 11 6 8 10 12 12 14 17 19 23 25 27 28 28 29 29 31 31 32
12 12 12 12 12 12 12 12 9 10 11 9 9 12 11 10 10 9 10 10 9 11 16 11 11 12 9 8 11 12 16 16 17 20 22 25 28 27 28 29 31 32 32
12 12 12 12 13 13 13 12 13 12 12 11 11 12 13 14 10 10 11 11 12 13 16 13 12 11 13 13 11 10 11 14 13 19 23 25 26 26 28 29 29 30 32
11 12 11 12 12 13 13 14 14 14 14 13 13 13 14 11 13 12 11 13 11 12 13 21 16 15 16 13 10 13 11 10 13 18 20 23 24 25 27 28 29 31 31
11 11 11 12 12 12 15 14 14 13 13 12 13 13 14 14 13 13 13 12 12 12 13 13 16 13 15 14 15 10 9 14 9 17 18 19 20 24 26 27 29 29 28
10 10 11 11 11 12 14 14 14 14 13 12 12 12 13 14 15 15 13 15 14 14 15 14 15 14 13 13 8 9 12 11 12 10 12 16 16 19 24 27 27 28 29
9 9 10 10 10 11 11 14 14 12 12 12 12 12 12 12 14 19 12 16 17 14 13 15 16 15 13 12 13 13 14 13 15 12 11 8 8 9 12 20 22 22 25
9 8 9 10 9 8 18 20 18 11 13 13 12 13 13 12 18 22 23 26 22 18 18 15 15 16 18 16 14 14 15 13 14 7 9 13 5 10 9 10 19 25 26
8 8 9 9 8 9 19 21 21 11 11 12 13 13 13 12 16 17 24 28 23 24 23 20 21 18 21 17 17 16 16 18 19 16 14 18 4 12 9 10 21 23 25
7 7 8 9 9 8 19 20 21 12 11 12 13 14 14 16 17 22 21 19 17 16 15 13 17 20 20 21 20 20 21 21 19 15 13 20 11 11 8 9 20 22 25
5 6 7 8 9 8 18 20 18 11 11 13 13 14 14 14 24 29 19 19 18 15 19 30 32 35 35 33 28 18 14 15 19 17 12 14 13 8 3 9 8 22 25
5 5 6 6 8 8 15 18 19 8 11 11 11 13 18 20 29 29 18 16 17 19 20 20 17 21 24 19 25 18 14 14 15 18 9 8 12 3 7 4 9 10 12
Wind_Direction
222 229 234 236 236 228 234 233 241 240 242 235 244 242 246 251 251 248 243 191 203 231 245 247 252 249 247 230 225 220 213 228 226 229 229 229 228 225 226 224 225 224 225
228 227 230 233 239 240 241 241 241 243 240 242 247 239 240 243 249 250 250 245 203 215 235 242 245 250 248 250 236 226 226 219 224 227 230 231 232 228 227 229 226 227 227
232 233 233 230 231 238 246 254 252 251 258 254 247 247 243 240 239 247 248 243 240 216 225 236 240 244 248 247 251 242 233 228 225 224 227 230 231 232 230 229 231 229 228
226 233 232 235 235 233 238 235 245 248 255 256 257 255 246 240 244 251 249 243 240 241 216 225 232 238 241 247 248 250 249 234 228 226 227 227 230 232 234 233 232 232 231
226 227 231 229 231 232 235 235 233 234 243 248 251 252 253 255 253 248 247 246 247 243 240 221 218 226 232 237 244 247 247 249 237 227 223 224 228 233 232 233 231 232 233
226 231 233 236 228 226 229 234 235 238 242 247 258 269 261 250 253 251 254 250 247 247 241 240 238 225 224 229 235 240 244 245 246 238 231 230 226 226 228 230 232 232 232
244 224 231 236 229 223 234 235 243 241 239 241 252 262 264 261 254 247 244 249 249 251 242 236 238 242 232 226 232 235 238 242 242 243 242 233 232 231 230 230 229 229 229
254 243 232 237 241 228 237 247 250 251 255 253 223 246 273 253 239 239 236 244 251 250 244 246 235 236 237 237 220 232 238 238 240 240 240 241 237 234 234 233 235 234 234
222 241 243 249 251 251 239 237 241 236 243 238 226 230 260 243 320 221 230 239 243 246 264 256 240 238 239 242 240 224 227 235 238 238 239 239 240 240 238 236 236 236 237
207 219 216 228 251 261 256 248 248 246 231 241 230 226 242 264 271 283 260 255 243 242 238 235 238 232 227 235 242 233 224 227 234 238 240 239 239 240 241 241 240 240 240
26 12 345 252 244 250 256 256 251 237 242 250 244 236 236 249 258 262 272 254 236 248 255 257 257 250 240 234 237 238 232 230 227 236 239 240 240 241 243 244 243 243 242
45 26 13 13 359 304 273 265 259 257 248 243 249 251 251 255 263 249 261 270 271 270 268 263 253 252 247 244 237 242 238 238 234 230 234 242 244 243 242 243 244 245 244
26 17 10 7 8 357 356 354 318 272 263 259 254 256 251 254 261 269 277 284 282 284 273 257 259 256 252 244 246 233 235 244 245 241 239 236 236 241 243 243 241 242 244
22 13 10 6 9 6 3 358 340 357 353 334 300 267 272 267 259 254 256 279 288 276 269 268 251 241 246 238 239 240 245 243 241 245 244 240 238 240 243 242 243 242 240
15 14 11 8 8 11 8 6 359 4 353 350 338 349 339 331 313 297 275 269 273 285 287 281 282 262 254 250 248 245 244 249 243 240 239 242 241 241 246 244 242 241 238
17 15 12 8 11 11 12 8 4 8 359 357 354 345 345 337 333 334 329 315 294 286 287 296 281 284 267 254 249 242 250 243 241 244 243 240 240 242 239 241 243 240 236
18 17 13 11 12 12 11 9 5 4 357 355 353 350 346 351 345 337 335 335 327 327 305 302 288 279 273 268 267 245 255 250 252 241 239 239 240 241 241 236 239 242 243
21 16 16 19 15 12 21 10 3 358 353 353 352 348 350 343 343 342 350 339 327 323 317 312 311 314 308 290 266 269 266 247 253 251 245 244 246 243 242 239 238 236 236
23 23 19 21 18 16 26 9 0 356 352 355 349 349 345 345 347 347 336 331 332 328 317 306 307 311 314 314 305 284 262 271 257 257 257 251 242 240 240 238 238 237 236
24 25 26 23 23 29 21 7 3 357 347 354 356 350 352 353 343 335 338 330 325 322 319 312 308 307 306 312 305 305 297 290 278 273 253 252 256 246 244 245 242 238 235
21 25 29 25 26 42 15 2 358 354 355 351 356 354 351 342 329 343 329 332 327 322 314 310 308 308 313 316 310 308 300 301 286 280 277 252 243 246 248 244 244 237 236
16 27 30 32 27 33 14 12 4 6 1 1 357 355 350 347 347 341 342 337 332 325 317 310 305 302 304 306 305 311 304 308 306 299 280 273 215 253 253 243 241 233 225
11 22 28 28 29 29 12 14 8 7 4 359 355 354 351 352 346 348 338 330 324 314 309 304 300 300 302 307 307 309 308 301 289 292 300 288 253 255 245 243 239 233 225
10 13 18 21 19 21 12 9 8 6 3 357 354 353 352 348 351 341 330 325 320 316 304 300 295 297 297 302 296 294 291 287 283 281 268 269 267 258 250 243 239 231 226
5 8 11 18 17 14 10 7 9 3 359 354 354 350 347 343 338 336 335 326 325 321 326 319 309 303 289 285 282 285 284 287 288 286 279 267 273 261 225 246 233 232 228
4 0 5 15 16 9 6 3 10 357 354 351 348 345 341 341 337 341 337 334 328 331 332 322 317 312 312 298 284 268 272 275 284 290 288 253 268 221 269 197 225 226 222